Location: Izdebno
(52.6670°N, 16.2170°E)
Time: 10:36:09
(UTC+02:00)

A-11 Canister half - Pass Details

Date: 28 February 2024
Orbit: 1513 x 1686 km, 47.2° (Epoch: 24 April)

Event Time Altitude Azimuth Distance (km) Brightness Sun altitude
Exits shadow 02:34:25 57° 147° (SSE) 1,913 9.3 -36.5°
Drops below altitude 10° 02:43:18 10° 88° (E) 3,869 11.6 -35.5°
Sets 02:46:26 0° 85° (E) 4,834 12.3 -35.1°
